Regional Weather Roundup
Issued by NWS

Home | Current Version | Previous Version | Text Only | Print | Product List | Glossary Off
Versions: 1 2 3 4 5 6 7 8 9 10 11 12 13 14 15 16 17 18 19 20 21 22 23 24 25 26 27 28 29 30 31 32 33 34 35 36 37 38 39 40 41 42 43 44 45 46 47 48 49 50

000
ASUS45 KPSR 040400
RWRAZ

ARIZONA HOURLY REGIONAL WEATHER ROUNDUP
NATIONAL WEATHER SERVICE PHOENIX AZ
900 PM MST FRI JUL 03 2015

NOTE: FAIR INDICATES FEW OR NO CLOUDS BELOW 12,000 FEET WITH NO
SIGNIFICANT WEATHER AND/OR OBSTRUCTIONS TO VISIBILITY.

AZZ001>003-036-040500-
NORTHWEST ARIZONA

CITY           SKY/WX    TMP DP  RH WIND       PRES   REMARKS
KINGMAN        CLOUDY    86  51  29 SE15      29.95R
$$

AZZ004>008-015-016-018-040500-
NORTH CENTRAL ARIZONA

CITY           SKY/WX    TMP DP  RH WIND       PRES   REMARKS
GRAND CANYON   CLOUDY    70  51  51 W6        30.19R
WILLIAMS       CLOUDY    64  55  72 W5        30.29R
PRESCOTT       CLOUDY    74  57  55 E7        30.13R
FLAGSTAFF      NOT AVBL
PAYSON         CLOUDY    72  59  64 CALM      30.11S
PAGE           MOCLDY    88  45  22 S6        29.95R
$$

AZZ009>014-017-040500-
NORTHEAST ARIZONA

CITY           SKY/WX    TMP DP  RH WIND       PRES   REMARKS
WINSLOW        CLOUDY    73  59  60 SE26G32   30.11R THUNDER
SAINT JOHNS    CLOUDY    66  62  87 S5        30.16F
WINDOW ROCK    CLOUDY    69  50  50 CALM      30.21R
SHOW LOW       LGT RAIN  61  55  82 E3        30.23R
$$

AZZ023-040500-
GREATER PHOENIX AREA

CITY           SKY/WX    TMP DP  RH WIND       PRES   REMARKS
PHOENIX        MOCLDY    97  60  29 CALM      29.73S
DEER VALLEY    CLOUDY    94  58  29 CALM      29.78R
SCOTTSDALE     CLOUDY    96  57  27 CALM      29.79R
CHANDLER       MOCLDY    93  57  29 CALM      29.75F
$$

AZZ027-028-040500-
SOUTHWEST MARICOPA COUNTY AND PINAL COUNTY

CITY           SKY/WX    TMP DP  RH WIND       PRES   REMARKS
CASA GRANDE    MOCLDY    91  55  29 CALM      29.77S
$$

AZZ503-504-507>509-040500-
SOUTHEAST ARIZONA

CITY           SKY/WX    TMP DP  RH WIND       PRES   REMARKS
TUCSON         MOCLDY    94  50  22 N15       29.87R
NOGALES        CLOUDY    81  58  45 NE5       29.95R
SAFFORD        MOCLDY    88  59  37 NE8       29.88R
$$

AZZ020-021-025-026-031-040500-
SOUTHWEST ARIZONA

CITY           SKY/WX    TMP DP  RH WIND       PRES   REMARKS
YUMA           PTCLDY    99  59  26 SW6       29.67R
$$

CAZ031-033-041-043-047-048-061-040500-
SOUTHERN CALIFORNIA

CITY           SKY/WX    TMP DP  RH WIND       PRES   REMARKS
DOWNTOWN L.A.  PTCLDY    65  60  84 CALM      29.86R
L.A. AIRPORT   CLOUDY    63  60  90 SW12      29.86R
SAN DIEGO      CLOUDY    68  61  78 N6        29.90R
BURBANK        CLEAR     71  59  65 SE10      29.85R
ONTARIO        MOCLDY    76  53  44 W10       29.86R
RIVERSIDE      MOCLDY    77  58  51 W7        29.86R
PALM SPRINGS   CLOUDY    98  54  22 NW14G23   29.68R
EL CENTRO NAS  PTCLDY    99  52  20 SW9       29.66R
IMPERIAL       PTCLDY    98  55  23 W12       29.64R
BLYTHE         MOCLDY    95  60  31 E3        29.67R
$$

NVZ020-UTZ003-040500-
SOUTHERN NEVADA-UTAH

CITY           SKY/WX    TMP DP  RH WIND       PRES   REMARKS
LAS VEGAS      NOT AVBL
SALT LAKE CITY MOCLDY    89  47  23 SE7       29.90R
$$

NMZ009-TXZ055-040500-
NEW MEXICO-WEST TEXAS

CITY           SKY/WX    TMP DP  RH WIND       PRES   REMARKS
ALBUQUERQUE    PTCLDY    73  58  59 SE12      30.13R
EL PASO        MOCLDY    84  58  40 E14       30.00R
$$


........................KEY........................
SKY/WX - SKY CONDITION/WEATHER
TMP    - TEMPERATURE IN FAHRENHEIT
DP     - DEW POINT IN FAHRENHEIT
RH     - RELATIVE HUMIDITY IN PERCENT
WIND   - DIRECTION AND SPEED IN MILES PER HOUR (MPH)
VRB    - VARIABLE WIND DIRECTION
PRES   - MEAN SEA LEVEL PRESSURE IN INCHES OF MERCURY
         F - FALLING PRESSURE   R - RISING PRESSURE
         S - STEADY PRESSURE
VSB    - VISIBILITY IN MILES
HX     - HEAT INDEX IN FAHRENHEIT
WCI    - WIND CHILL INDEX IN FAHRENHEIT
TC     - TEMPERATURE IN CELSIUS WHICH IS ALSO KNOWN AS
         TEMPERATURE IN CENTIGRADE
AFB    - AIR FORCE BASE
         LUKE AFB IS LUKE AIR FORCE BASE
         DAVIS-MONTHAN IS DAVIS-MONTHAN AIR FORCE BASE
NAS    - NAVAL AIR STATION
         EL CENTRO NAS IS EL CENTRO NAVAL AIR STATION
N/A    - NOT AVAILABLE




USA.gov is the U.S. government's official web portal to all federal, state and local government web resources and services.